contact: severine.martini@mio.osupytheas.fr, dominique.lefevre@mio.osupytheas.fr
Project:EMSO Ligure-ouest http://www.emso-fr.org/EMSO-France
Sensor Aquadopp, Serial 05974 
DOI : "https://doi.org/10.17882/97948" 
Title:EMSO Western Ligurian : Data Bathybot Aquadopp sensor - deploiement 2023-04-28
Datetime,Profondeur,Latitude,Longitude,X_East,Y_North,Z_up,Amplitude_X,Amplitude_Y,Amplitude_Z,Batterie,Sound_Speed,Heading,Pitch,Roll,Pressure,Temperature,Fluorescence,Speed,Direction
time,m,degree_north,degree_east,m.s-1,m.s-1,m.s-1,1,1,1,Volt,m.s-1,degree,degree,degree,dbar,degree_C,arbitrary units (a.u.),m.s-1,degree
2023-10-23T00:03:12,2420,42.8014,5.9826,0.054,0.071,3.99,155.0,151.0,152.0,11.7,1504.7,271.5,-0.8,0.9,2485.554,13.28,799.0,0.089,37.3
2023-10-23T00:06:13,2420,42.8014,5.9826,0.051,0.059,4.079,155.0,151.0,152.0,11.7,1504.7,271.4,-0.8,0.8,2486.259,13.28,808.0,0.077,40.8
2023-10-23T00:09:13,2420,42.8014,5.9826,0.03,0.064,4.08,155.0,152.0,152.0,11.7,1504.7,271.3,-0.8,0.9,2485.717,13.28,804.0,0.07,25.1
2023-10-23T00:12:13,2420,42.8014,5.9826,0.068,0.07,4.108,155.0,152.0,152.0,11.7,1504.7,271.5,-0.8,0.9,2486.018,13.28,794.0,0.097,44.2
2023-10-23T00:15:13,2420,42.8014,5.9826,0.035,0.062,4.097,155.0,152.0,152.0,11.7,1504.7,271.3,-0.8,0.9,2485.466,13.28,795.0,0.071,29.4
2023-10-23T00:18:13,2420,42.8014,5.9826,0.06,0.066,4.095,155.0,152.0,152.0,11.7,1504.7,271.4,-0.8,0.9,2485.906,13.28,791.0,0.089,42.3
2023-10-23T00:21:13,2420,42.8014,5.9826,0.077,0.062,4.035,155.0,152.0,152.0,11.7,1504.7,271.3,-0.8,0.9,2485.99,13.28,807.0,0.098,51.2
2023-10-23T00:24:13,2420,42.8014,5.9826,0.06,0.061,4.045,155.0,151.0,152.0,11.7,1504.7,271.5,-0.8,0.8,2485.878,13.28,799.0,0.085,44.5
2023-10-23T00:27:13,2420,42.8014,5.9826,0.039,0.052,4.057,155.0,152.0,152.0,11.7,1504.7,271.4,-0.8,0.8,2486.153,13.28,806.0,0.064,36.9
2023-10-23T00:30:13,2420,42.8014,5.9826,0.046,0.06,4.091,155.0,152.0,152.0,11.7,1504.7,271.3,-0.8,0.9,2486.038,13.28,801.0,0.075,37.5
2023-10-23T00:33:13,2420,42.8014,5.9826,0.019,0.074,4.064,155.0,152.0,152.0,11.7,1504.7,271.4,-0.8,0.9,2485.874,13.28,788.0,0.076,14.4
2023-10-23T00:36:13,2420,42.8014,5.9826,0.047,0.071,4.06,155.0,152.0,152.0,11.7,1504.7,271.4,-0.8,0.8,2486.008,13.28,785.0,0.085,33.5
2023-10-23T00:39:13,2420,42.8014,5.9826,0.058,0.07,4.112,155.0,152.0,152.0,11.7,1504.7,271.5,-0.9,0.9,2486.366,13.28,791.0,0.09,39.6
2023-10-23T00:42:13,2420,42.8014,5.9826,0.023,0.069,4.098,155.0,151.0,152.0,11.7,1504.7,271.3,-0.8,0.9,2486.161,13.28,810.0,0.072,18.4
2023-10-23T00:45:13,2420,42.8014,5.9826,0.032,0.062,4.07,155.0,152.0,152.0,11.7,1504.7,271.3,-0.9,0.9,2486.048,13.28,792.0,0.069,27.3
2023-10-23T00:48:13,2420,42.8014,5.9826,0.024,0.067,4.152,155.0,152.0,152.0,11.7,1504.7,271.5,-0.8,0.9,2485.9,13.28,797.0,0.071,19.7
2023-10-23T00:51:13,2420,42.8014,5.9826,0.063,0.062,4.023,155.0,152.0,152.0,11.7,1504.7,271.4,-0.8,0.9,2485.986,13.28,795.0,0.088,45.5
2023-10-23T00:54:13,2420,42.8014,5.9826,0.039,0.077,4.142,155.0,151.0,152.0,11.7,1504.7,271.3,-0.8,0.9,2485.821,13.28,786.0,0.086,26.9
2023-10-23T00:57:13,2420,42.8014,5.9826,0.062,0.069,4.057,155.0,151.0,152.0,11.7,1504.7,271.5,-0.8,0.9,2486.109,13.28,802.0,0.092,41.9
2023-10-23T01:03:13,2420,42.8014,5.9826,0.035,0.065,4.08,155.0,152.0,152.0,11.7,1504.7,271.5,-0.8,0.9,2486.201,13.28,790.0,0.073,28.3
2023-10-23T01:06:13,2420,42.8014,5.9826,0.041,0.064,4.037,155.0,151.0,152.0,11.7,1504.7,271.4,-0.8,0.8,2485.783,13.28,789.0,0.076,32.6
2023-10-23T01:09:13,2420,42.8014,5.9826,0.046,0.052,4.103,155.0,152.0,152.0,11.7,1504.7,271.4,-0.8,0.9,2485.898,13.28,790.0,0.069,41.5
2023-10-23T01:12:13,2420,42.8014,5.9826,0.027,0.024,4.019,155.0,151.0,152.0,11.7,1504.7,271.5,-0.8,0.9,2485.954,13.28,793.0,0.036,48.4
2023-10-23T01:15:13,2420,42.8014,5.9826,0.054,0.065,4.12,155.0,151.0,152.0,11.7,1504.7,271.4,-0.8,0.9,2486.261,13.28,800.0,0.084,39.7
2023-10-23T01:18:13,2420,42.8014,5.9826,0.052,0.081,4.021,155.0,151.0,152.0,11.7,1504.7,271.3,-0.8,0.9,2485.687,13.28,799.0,0.096,32.7
2023-10-23T01:21:13,2420,42.8014,5.9826,0.066,0.06,4.065,155.0,151.0,152.0,11.7,1504.7,271.3,-0.9,0.9,2486.161,13.28,801.0,0.089,47.7
2023-10-23T01:24:13,2420,42.8014,5.9826,0.046,0.056,4.073,155.0,152.0,152.0,11.7,1504.7,271.5,-0.8,0.9,2485.978,13.28,790.0,0.072,39.4
2023-10-23T01:27:13,2420,42.8014,5.9826,0.068,0.077,4.084,155.0,152.0,152.0,11.7,1504.7,271.4,-0.8,0.9,2485.759,13.28,802.0,0.102,41.4
2023-10-23T01:30:13,2420,42.8014,5.9826,0.025,0.065,4.11,155.0,151.0,152.0,11.7,1504.7,271.6,-0.8,0.9,2485.791,13.28,794.0,0.069,21.0
2023-10-23T01:33:13,2420,42.8014,5.9826,0.048,0.061,4.044,155.0,151.0,152.0,11.7,1504.7,271.4,-0.8,0.9,2486.151,13.28,790.0,0.077,38.2
2023-10-23T01:36:13,2420,42.8014,5.9826,0.107,0.054,3.921,155.0,152.0,152.0,11.7,1504.7,271.4,-0.8,0.8,2485.641,13.28,804.0,0.119,63.2
2023-10-23T01:39:13,2420,42.8014,5.9826,0.091,0.059,3.953,155.0,151.0,152.0,11.7,1504.7,271.3,-0.8,0.9,2485.906,13.28,783.0,0.108,57.0
2023-10-23T01:42:13,2420,42.8014,5.9826,0.047,0.07,3.985,155.0,152.0,152.0,11.7,1504.7,271.6,-0.8,0.9,2486.097,13.28,800.0,0.084,33.9
2023-10-23T01:45:13,2420,42.8014,5.9826,0.046,0.066,3.992,155.0,151.0,152.0,11.7,1504.7,271.3,-0.8,0.9,2486.167,13.28,780.0,0.08,34.9
2023-10-23T01:48:13,2420,42.8014,5.9826,0.07,0.06,3.997,155.0,152.0,152.0,11.7,1504.7,271.5,-0.8,0.9,2485.976,13.28,790.0,0.092,49.4
2023-10-23T01:51:13,2420,42.8014,5.9826,0.048,0.064,4.045,155.0,152.0,152.0,11.7,1504.7,271.5,-0.8,0.9,2485.86,13.28,797.0,0.079,36.9
2023-10-23T01:54:13,2420,42.8014,5.9826,0.066,0.07,3.98,155.0,152.0,152.0,11.7,1504.7,271.5,-0.8,0.9,2486.143,13.28,793.0,0.096,43.3
2023-10-23T01:57:13,2420,42.8014,5.9826,0.109,0.055,3.916,155.0,151.0,152.0,11.7,1504.7,271.4,-0.8,0.9,2485.892,13.28,791.0,0.122,63.2
2023-10-23T02:03:13,2420,42.8014,5.9826,0.044,0.065,4.017,155.0,152.0,152.0,11.7,1504.7,271.4,-0.9,0.9,2485.886,13.28,786.0,0.078,34.1
2023-10-23T02:06:13,2420,42.8014,5.9826,0.036,0.066,4.134,155.0,151.0,152.0,11.7,1504.7,271.5,-0.8,0.9,2485.84,13.28,796.0,0.075,28.6
2023-10-23T02:09:13,2420,42.8014,5.9826,0.048,0.057,4.099,155.0,152.0,152.0,11.7,1504.7,271.3,-0.8,0.9,2486.147,13.28,790.0,0.074,40.1
2023-10-23T02:12:13,2420,42.8014,5.9826,0.053,0.072,4.116,155.0,152.0,152.0,11.7,1504.7,271.3,-0.8,0.9,2485.952,13.28,797.0,0.089,36.4
2023-10-23T02:15:13,2420,42.8014,5.9826,-0.001,0.068,4.228,155.0,152.0,152.0,11.7,1504.7,271.4,-0.8,0.8,2486.028,13.28,805.0,0.068,359.2
2023-10-23T02:18:13,2420,42.8014,5.9826,0.014,0.062,4.167,155.0,151.0,152.0,11.7,1504.7,271.5,-0.8,0.9,2485.934,13.28,790.0,0.063,12.7
2023-10-23T02:21:13,2420,42.8014,5.9826,0.054,0.071,4.119,155.0,152.0,152.0,11.7,1504.7,271.4,-0.8,0.9,2485.813,13.28,793.0,0.089,37.3
2023-10-23T02:24:13,2420,42.8014,5.9826,0.048,0.076,4.121,155.0,151.0,152.0,11.7,1504.7,271.4,-0.8,0.9,2486.07,13.28,796.0,0.089,32.3
2023-10-23T02:27:13,2420,42.8014,5.9826,0.051,0.06,4.064,155.0,152.0,152.0,11.7,1504.7,271.3,-0.8,0.9,2486.08,13.28,792.0,0.078,40.4
2023-10-23T02:30:13,2420,42.8014,5.9826,0.078,0.063,4.052,155.0,152.0,152.0,11.7,1504.7,271.4,-0.8,0.9,2486.026,13.28,795.0,0.1,51.1
2023-10-23T02:33:12,2420,42.8014,5.9826,0.01,0.063,4.135,155.0,151.0,152.0,11.7,1504.7,271.3,-0.8,0.9,2486.221,13.28,791.0,0.063,9.0
2023-10-23T02:36:13,2420,42.8014,5.9826,0.068,0.063,4.101,155.0,152.0,152.0,11.7,1504.7,271.4,-0.8,0.9,2486.145,13.28,790.0,0.092,47.2
2023-10-23T02:39:13,2420,42.8014,5.9826,0.046,0.073,4.104,155.0,152.0,152.0,11.7,1504.7,271.3,-0.8,0.9,2486.066,13.28,794.0,0.086,32.2
2023-10-23T02:42:13,2420,42.8014,5.9826,0.078,0.054,3.992,155.0,151.0,152.0,11.7,1504.7,271.3,-0.9,0.9,2486.05,13.28,792.0,0.094,55.3
2023-10-23T02:45:13,2420,42.8014,5.9826,0.034,0.064,4.149,155.0,151.0,152.0,11.7,1504.7,271.3,-0.8,0.8,2486.03,13.28,790.0,0.072,28.0
2023-10-23T02:48:13,2420,42.8014,5.9826,0.046,0.07,4.158,155.0,151.0,152.0,11.7,1504.7,271.5,-0.8,0.9,2486.024,13.28,781.0,0.083,33.3
2023-10-23T02:51:13,2420,42.8014,5.9826,0.058,0.07,4.035,155.0,152.0,152.0,11.7,1504.7,271.5,-0.8,0.9,2486.032,13.28,782.0,0.09,39.6
2023-10-23T02:54:13,2420,42.8014,5.9826,0.057,0.073,4.082,155.0,151.0,152.0,11.7,1504.7,271.4,-0.9,0.9,2485.751,13.28,795.0,0.092,38.0
2023-10-23T02:57:13,2420,42.8014,5.9826,0.05,0.076,4.066,155.0,151.0,152.0,11.7,1504.7,271.4,-0.9,0.9,2486.0,13.28,802.0,0.09,33.3
2023-10-23T03:03:13,2420,42.8014,5.9826,0.057,0.074,4.088,155.0,151.0,152.0,11.7,1504.7,271.5,-0.8,0.9,2486.046,13.28,779.0,0.093,37.6
2023-10-23T03:06:13,2420,42.8014,5.9826,0.0,0.065,4.152,155.0,151.0,152.0,11.7,1504.7,271.4,-0.9,0.9,2486.219,13.28,806.0,0.064,0.0
2023-10-23T03:09:13,2420,42.8014,5.9826,0.034,0.063,4.126,155.0,151.0,152.0,11.7,1504.7,271.3,-0.9,0.9,2486.137,13.28,803.0,0.071,28.4
2023-10-23T03:12:13,2420,42.8014,5.9826,0.044,0.069,4.031,155.0,152.0,152.0,11.7,1504.7,271.5,-0.8,0.9,2486.038,13.28,803.0,0.081,32.5
2023-10-23T03:15:13,2420,42.8014,5.9826,0.018,0.063,4.073,155.0,151.0,152.0,11.7,1504.7,271.6,-0.8,0.9,2485.825,13.28,804.0,0.065,15.9
2023-10-23T03:18:13,2420,42.8014,5.9826,0.061,0.064,4.081,155.0,152.0,152.0,11.7,1504.7,271.6,-0.8,0.8,2485.964,13.28,783.0,0.088,43.6
2023-10-23T03:21:13,2420,42.8014,5.9826,0.078,0.057,4.067,155.0,152.0,152.0,11.7,1504.7,271.5,-0.8,0.9,2485.984,13.28,776.0,0.096,53.8
2023-10-23T03:24:13,2420,42.8014,5.9826,0.047,0.075,4.09,155.0,152.0,152.0,11.7,1504.7,271.6,-0.8,0.9,2485.93,13.28,792.0,0.088,32.1
2023-10-23T03:27:13,2420,42.8014,5.9826,0.039,0.067,4.059,155.0,152.0,152.0,11.7,1504.7,271.4,-0.8,0.8,2485.912,13.28,803.0,0.077,30.2
2023-10-23T03:30:13,2420,42.8014,5.9826,0.022,0.078,4.18,155.0,151.0,152.0,11.7,1504.7,271.3,-0.8,0.9,2486.362,13.28,795.0,0.081,15.7
2023-10-23T03:33:13,2420,42.8014,5.9826,0.042,0.052,4.119,155.0,152.0,152.0,11.7,1504.7,271.3,-0.8,0.9,2486.01,13.28,800.0,0.066,38.9
2023-10-23T03:36:13,2420,42.8014,5.9826,0.084,0.06,4.071,155.0,152.0,152.0,11.7,1504.7,271.6,-0.8,0.9,2485.809,13.28,795.0,0.103,54.5
2023-10-23T03:39:13,2420,42.8014,5.9826,0.03,0.068,4.138,155.0,151.0,152.0,11.7,1504.7,271.4,-0.9,0.8,2486.129,13.28,782.0,0.074,23.8
2023-10-23T03:42:13,2420,42.8014,5.9826,0.031,0.065,4.135,155.0,152.0,152.0,11.7,1504.7,271.5,-0.8,0.9,2486.223,13.28,800.0,0.072,25.5
2023-10-23T03:45:13,2420,42.8014,5.9826,0.027,0.066,4.096,155.0,152.0,152.0,11.7,1504.7,271.3,-0.8,0.9,2486.155,13.28,788.0,0.071,22.2
2023-10-23T03:48:13,2420,42.8014,5.9826,0.014,0.072,4.158,155.0,152.0,152.0,11.7,1504.7,271.4,-0.9,0.9,2485.944,13.28,787.0,0.073,11.0
2023-10-23T03:51:13,2420,42.8014,5.9826,0.059,0.059,4.089,155.0,151.0,152.0,11.7,1504.7,271.5,-0.8,0.8,2486.287,13.28,788.0,0.083,45.0
2023-10-23T03:54:13,2420,42.8014,5.9826,0.033,0.068,4.169,155.0,152.0,152.0,11.7,1504.7,271.4,-0.8,0.9,2485.815,13.28,795.0,0.075,25.9
2023-10-23T03:57:13,2420,42.8014,5.9826,0.028,0.06,4.219,155.0,152.0,152.0,11.7,1504.7,271.4,-0.9,0.8,2486.438,13.28,792.0,0.066,25.0
2023-10-23T04:03:13,2420,42.8014,5.9826,0.063,0.065,4.156,155.0,152.0,152.0,11.7,1504.7,271.5,-0.8,0.9,2486.498,13.28,779.0,0.09,44.1
2023-10-23T04:06:13,2420,42.8014,5.9826,0.01,0.077,4.236,155.0,152.0,152.0,11.7,1504.7,271.5,-0.8,0.9,2486.374,13.28,789.0,0.077,7.4
2023-10-23T04:09:13,2420,42.8014,5.9826,0.041,0.183,3.878,155.0,151.0,152.0,11.7,1504.7,271.3,-0.8,0.9,2486.426,13.28,793.0,0.187,12.6
2023-10-23T04:12:13,2420,42.8014,5.9826,-0.001,0.071,4.239,155.0,151.0,152.0,11.7,1504.7,271.3,-0.8,0.8,2486.141,13.28,794.0,0.071,359.2
2023-10-23T04:15:13,2420,42.8014,5.9826,0.032,0.075,4.166,155.0,152.0,152.0,11.7,1504.7,271.5,-0.8,0.9,2486.259,13.28,792.0,0.081,23.1
2023-10-23T04:18:13,2420,42.8014,5.9826,0.067,0.062,4.16,155.0,152.0,152.0,11.7,1504.7,271.4,-0.8,0.9,2486.227,13.28,801.0,0.091,47.2
2023-10-23T04:21:13,2420,42.8014,5.9826,0.021,0.063,4.141,155.0,151.0,152.0,11.7,1504.7,271.4,-0.9,0.9,2486.086,13.28,795.0,0.066,18.4
2023-10-23T04:24:13,2420,42.8014,5.9826,0.052,0.063,4.178,155.0,152.0,152.0,11.7,1504.7,271.3,-0.8,0.9,2486.161,13.28,782.0,0.081,39.5
2023-10-23T04:27:13,2420,42.8014,5.9826,0.017,0.066,4.246,155.0,152.0,152.0,11.7,1504.7,271.5,-0.8,0.9,2485.956,13.28,808.0,0.068,14.4
2023-10-23T04:30:13,2420,42.8014,5.9826,0.055,0.065,4.115,155.0,152.0,152.0,11.7,1504.7,271.5,-0.8,0.9,2486.191,13.28,800.0,0.085,40.2
2023-10-23T04:33:12,2420,42.8014,5.9826,0.008,0.065,4.239,155.0,152.0,152.0,11.7,1504.7,271.5,-0.8,0.9,2486.084,13.28,789.0,0.065,7.0
2023-10-23T04:36:13,2420,42.8014,5.9826,0.001,0.069,4.212,155.0,152.0,152.0,11.7,1504.7,271.4,-0.8,0.9,2485.96,13.28,780.0,0.069,0.8
2023-10-23T04:39:13,2420,42.8014,5.9826,0.015,0.064,4.235,155.0,151.0,152.0,11.7,1504.7,271.4,-0.8,0.9,2486.068,13.28,803.0,0.065,13.2
2023-10-23T04:42:13,2420,42.8014,5.9826,0.029,0.062,4.169,155.0,152.0,152.0,11.7,1504.7,271.5,-0.8,0.9,2485.998,13.28,790.0,0.068,25.1
2023-10-23T04:45:13,2420,42.8014,5.9826,0.054,0.074,4.085,155.0,152.0,152.0,11.7,1504.7,271.5,-0.8,0.8,2485.876,13.28,786.0,0.091,36.1
2023-10-23T04:48:13,2420,42.8014,5.9826,0.012,0.061,4.168,155.0,152.0,152.0,11.7,1504.7,271.5,-0.8,0.9,2485.946,13.28,794.0,0.062,11.1
2023-10-23T04:51:13,2420,42.8014,5.9826,0.028,0.062,4.202,155.0,152.0,152.0,11.7,1504.7,271.3,-0.8,0.9,2486.237,13.28,795.0,0.068,24.3
2023-10-23T04:54:13,2420,42.8014,5.9826,0.026,0.086,4.243,155.0,152.0,152.0,11.7,1504.7,271.4,-0.8,0.9,2486.514,13.28,797.0,0.089,16.8
2023-10-23T04:57:13,2420,42.8014,5.9826,-0.009,0.057,4.24,155.0,152.0,152.0,11.7,1504.7,271.4,-0.8,0.9,2486.153,13.28,801.0,0.057,351.0
2023-10-23T05:03:12,2420,42.8014,5.9826,0.051,0.06,4.164,155.0,151.0,152.0,11.7,1504.7,271.5,-0.8,0.9,2485.974,13.28,795.0,0.078,40.4
2023-10-23T05:06:13,2420,42.8014,5.9826,0.007,0.062,4.097,155.0,152.0,152.0,11.7,1504.7,271.3,-0.8,0.8,2486.263,13.28,789.0,0.062,6.4
2023-10-23T05:09:13,2420,42.8014,5.9826,0.015,0.074,4.179,155.0,151.0,152.0,11.7,1504.7,271.4,-0.8,0.9,2486.02,13.28,794.0,0.075,11.5
2023-10-23T05:12:13,2420,42.8014,5.9826,0.061,0.063,4.083,155.0,151.0,152.0,11.7,1504.7,271.3,-0.8,0.9,2485.964,13.28,805.0,0.087,44.1
2023-10-23T05:15:13,2420,42.8014,5.9826,-0.001,0.054,4.199,155.0,151.0,152.0,11.7,1504.7,271.4,-0.8,0.9,2485.771,13.28,796.0,0.054,358.9
2023-10-23T05:18:13,2420,42.8014,5.9826,0.043,0.071,4.148,155.0,152.0,152.0,11.7,1504.7,271.4,-0.8,0.9,2486.024,13.28,788.0,0.083,31.2
2023-10-23T05:21:13,2420,42.8014,5.9826,0.024,0.076,4.227,155.0,152.0,152.0,11.7,1504.7,271.3,-0.8,0.9,2485.9,13.28,801.0,0.079,17.5
2023-10-23T05:24:13,2420,42.8014,5.9826,0.056,0.064,4.205,155.0,151.0,152.0,11.7,1504.7,271.3,-0.8,0.9,2485.988,13.28,794.0,0.085,41.2
2023-10-23T05:27:13,2420,42.8014,5.9826,0.014,0.064,4.301,155.0,151.0,152.0,11.7,1504.7,271.4,-0.8,0.9,2486.032,13.28,796.0,0.065,12.3
2023-10-23T05:30:13,2420,42.8014,5.9826,-0.011,0.082,4.327,155.0,152.0,152.0,11.7,1504.7,271.4,-0.8,0.9,2486.074,13.28,802.0,0.082,352.4
2023-10-23T05:33:12,2420,42.8014,5.9826,0.017,0.071,4.22,155.0,151.0,152.0,11.7,1504.7,271.5,-0.8,0.9,2485.892,13.28,794.0,0.073,13.5
2023-10-23T05:36:13,2420,42.8014,5.9826,0.006,0.068,4.252,155.0,151.0,152.0,11.7,1504.7,271.4,-0.8,0.9,2486.153,13.28,796.0,0.068,5.0
2023-10-23T05:39:13,2420,42.8014,5.9826,0.014,0.067,4.224,155.0,151.0,152.0,11.7,1504.7,271.6,-0.8,0.9,2486.066,13.28,790.0,0.068,11.8
2023-10-23T05:42:13,2420,42.8014,5.9826,0.023,0.059,4.271,155.0,152.0,152.0,11.7,1504.7,271.4,-0.8,0.9,2485.89,13.28,785.0,0.063,21.3
2023-10-23T05:45:13,2420,42.8014,5.9826,-0.011,0.061,4.224,155.0,152.0,152.0,11.7,1504.7,271.3,-0.8,0.9,2486.086,13.28,781.0,0.061,349.8
2023-10-23T05:48:13,2420,42.8014,5.9826,0.023,0.062,4.279,155.0,151.0,152.0,11.7,1504.7,271.5,-0.8,0.9,2485.84,13.28,808.0,0.066,20.4
2023-10-23T05:51:13,2420,42.8014,5.9826,0.007,0.061,4.229,155.0,151.0,152.0,11.7,1504.7,271.3,-0.8,0.9,2486.147,13.28,799.0,0.061,6.5
2023-10-23T05:54:13,2420,42.8014,5.9826,0.054,0.077,4.223,155.0,151.0,152.0,11.7,1504.7,271.3,-0.9,0.9,2485.906,13.28,794.0,0.094,35.0
2023-10-23T05:57:13,2420,42.8014,5.9826,0.055,0.078,4.163,155.0,151.0,152.0,11.7,1504.7,271.3,-0.8,0.9,2485.649,13.28,796.0,0.095,35.2
2023-10-23T06:03:13,2420,42.8014,5.9826,-0.021,0.069,4.214,155.0,152.0,152.0,11.7,1504.7,271.4,-0.8,0.9,2486.297,13.28,794.0,0.072,343.1
2023-10-23T06:06:13,2420,42.8014,5.9826,0.02,0.073,4.203,155.0,152.0,152.0,11.7,1504.7,271.5,-0.8,0.9,2486.008,13.28,805.0,0.075,15.3
2023-10-23T06:09:13,2420,42.8014,5.9826,0.021,0.075,4.18,155.0,151.0,152.0,11.7,1504.7,271.4,-0.8,0.9,2486.249,13.28,791.0,0.077,15.6
2023-10-23T06:12:13,2420,42.8014,5.9826,0.051,0.082,4.157,155.0,152.0,152.0,11.7,1504.7,271.4,-0.8,0.9,2485.649,13.28,790.0,0.096,31.9
2023-10-23T06:15:13,2420,42.8014,5.9826,0.022,0.076,4.185,155.0,152.0,152.0,11.7,1504.7,271.4,-0.8,0.9,2485.956,13.28,804.0,0.079,16.1
2023-10-23T06:18:12,2420,42.8014,5.9826,0.023,0.064,4.172,155.0,151.0,152.0,11.7,1504.7,271.3,-0.9,0.9,2485.833,13.28,780.0,0.068,19.8
2023-10-23T06:21:13,2420,42.8014,5.9826,0.086,0.065,4.072,155.0,151.0,152.0,11.7,1504.7,271.4,-0.8,0.9,2485.896,13.28,787.0,0.107,52.9
2023-10-23T06:24:13,2420,42.8014,5.9826,0.045,0.057,4.081,155.0,151.0,152.0,11.7,1504.7,271.3,-0.8,0.9,2485.848,13.28,803.0,0.072,38.3
2023-10-23T06:27:13,2420,42.8014,5.9826,0.067,0.056,4.128,155.0,151.0,152.0,11.7,1504.7,271.5,-0.8,0.9,2485.854,13.28,787.0,0.087,50.1
2023-10-23T06:30:13,2420,42.8014,5.9826,0.027,0.06,4.193,155.0,152.0,152.0,11.7,1504.7,271.6,-0.8,0.9,2485.884,13.28,786.0,0.065,24.2
2023-10-23T06:33:13,2420,42.8014,5.9826,0.043,0.06,4.164,155.0,152.0,152.0,11.7,1504.7,271.3,-0.8,0.9,2486.105,13.28,789.0,0.073,35.6
2023-10-23T06:36:13,2420,42.8014,5.9826,0.059,0.077,4.159,155.0,151.0,152.0,11.7,1504.7,271.5,-0.8,0.9,2485.831,13.28,794.0,0.097,37.5
2023-10-23T06:39:13,2420,42.8014,5.9826,0.054,0.066,4.152,155.0,151.0,152.0,11.7,1504.7,271.5,-0.8,0.9,2486.008,13.28,805.0,0.085,39.3
2023-10-23T06:42:13,2420,42.8014,5.9826,0.027,0.068,4.185,155.0,152.0,152.0,11.7,1504.7,271.4,-0.8,0.9,2485.886,13.28,802.0,0.073,21.7
2023-10-23T06:45:13,2420,42.8014,5.9826,0.027,0.074,4.206,155.0,151.0,152.0,11.7,1504.7,271.3,-0.8,0.9,2486.225,13.28,789.0,0.078,20.0
2023-10-23T06:48:13,2420,42.8014,5.9826,0.05,0.064,4.167,155.0,151.0,152.0,11.7,1504.7,271.3,-0.9,0.9,2485.844,13.28,782.0,0.081,38.0
2023-10-23T06:51:13,2420,42.8014,5.9826,0.041,0.06,4.191,155.0,151.0,152.0,11.7,1504.7,271.3,-0.9,0.8,2486.462,13.28,781.0,0.072,34.3
2023-10-23T06:54:13,2420,42.8014,5.9826,0.01,0.069,4.161,155.0,151.0,152.0,11.7,1504.7,271.5,-0.8,0.8,2485.57,13.28,792.0,0.069,8.2
2023-10-23T06:57:13,2420,42.8014,5.9826,0.021,0.074,4.152,155.0,152.0,152.0,11.7,1504.7,271.3,-0.8,0.9,2485.97,13.28,813.0,0.076,15.8
2023-10-23T07:03:12,2420,42.8014,5.9826,0.812,0.251,2.232,155.0,151.0,152.0,11.8,1504.7,271.3,-0.8,0.9,2485.37,13.28,775.0,0.85,72.8
2023-10-23T07:06:13,2420,42.8014,5.9826,1.321,0.03,3.049,155.0,151.0,152.0,11.8,1504.7,271.3,-0.8,0.9,2485.506,13.28,790.0,1.321,88.7
2023-10-23T07:09:13,2420,42.8014,5.9826,1.273,0.011,3.059,155.0,151.0,152.0,11.8,1504.7,271.3,-0.8,0.9,2485.269,13.28,789.0,1.273,89.5
2023-10-23T07:12:13,2420,42.8014,5.9826,1.354,0.015,3.003,155.0,151.0,152.0,11.8,1504.7,271.3,-0.9,0.9,2485.187,13.28,790.0,1.354,89.4
2023-10-23T07:15:13,2420,42.8014,5.9826,1.178,0.254,2.751,155.0,151.0,152.0,11.8,1504.7,271.3,-0.9,0.9,2485.637,13.28,1519.0,1.205,77.8
2023-10-23T07:18:13,2420,42.8014,5.9826,1.294,0.041,3.034,155.0,151.0,152.0,11.8,1504.7,271.4,-0.9,0.8,2485.428,13.28,793.0,1.294,88.2
2023-10-23T07:21:13,2420,42.8014,5.9826,1.041,0.026,2.435,155.0,151.0,152.0,11.8,1504.7,271.3,-0.9,0.9,2485.649,13.28,1226.0,1.041,88.6
2023-10-23T07:24:13,2420,42.8014,5.9826,1.239,0.255,2.646,155.0,151.0,152.0,11.8,1504.7,271.5,-0.8,0.8,2485.524,13.28,782.0,1.265,78.4
2023-10-23T07:27:13,2420,42.8014,5.9826,1.099,0.366,2.605,155.0,151.0,153.0,11.8,1504.7,271.4,-0.8,0.9,2485.731,13.28,781.0,1.158,71.6
2023-10-23T07:30:13,2420,42.8014,5.9826,1.376,-0.003,2.973,155.0,151.0,152.0,11.8,1504.7,271.5,-0.8,0.9,2485.506,13.28,794.0,1.376,90.1
2023-10-23T07:33:13,2420,42.8014,5.9826,1.313,0.001,3.011,155.0,151.0,152.0,11.8,1504.7,271.5,-0.8,0.9,2485.57,13.28,790.0,1.313,90.0
2023-10-23T07:36:13,2420,42.8014,5.9826,1.113,0.009,2.376,155.0,151.0,152.0,11.8,1504.7,271.3,-0.8,0.9,2485.823,13.28,800.0,1.113,89.5
2023-10-23T07:39:13,2420,42.8014,5.9826,1.173,-0.232,2.693,155.0,151.0,152.0,11.8,1504.7,271.4,-0.8,0.8,2485.655,13.29,789.0,1.196,101.2
2023-10-23T07:42:13,2420,42.8014,5.9826,0.226,0.057,3.965,155.0,151.0,152.0,11.7,1504.7,271.3,-0.8,0.8,2485.619,13.29,790.0,0.233,75.8
2023-10-23T07:45:13,2420,42.8014,5.9826,0.015,0.073,4.106,155.0,151.0,152.0,11.7,1504.7,271.3,-0.9,0.9,2485.856,13.29,800.0,0.074,11.6
2023-10-23T07:48:13,2420,42.8014,5.9826,0.034,0.066,4.111,155.0,151.0,152.0,11.7,1504.7,271.3,-0.8,0.9,2485.544,13.28,787.0,0.074,27.3
2023-10-23T07:51:13,2420,42.8014,5.9826,-0.014,0.069,4.253,155.0,151.0,152.0,11.7,1504.7,271.3,-0.8,0.9,2485.854,13.29,799.0,0.07,348.5
2023-10-23T07:54:12,2420,42.8014,5.9826,0.072,0.068,4.19,155.0,151.0,152.0,11.7,1504.7,271.5,-0.8,0.9,2485.631,13.29,793.0,0.099,46.6
2023-10-23T07:57:13,2420,42.8014,5.9826,0.178,0.306,3.572,155.0,151.0,152.0,11.8,1504.7,271.3,-0.8,0.9,2485.689,13.29,785.0,0.354,30.2
2023-10-23T08:03:13,2420,42.8014,5.9826,0.037,0.064,4.225,155.0,151.0,152.0,11.7,1504.7,271.4,-0.8,0.9,2485.601,13.28,787.0,0.073,30.0
2023-10-23T08:06:12,2420,42.8014,5.9826,0.037,0.066,4.111,155.0,151.0,152.0,11.7,1504.7,271.5,-0.8,0.9,2485.896,13.28,792.0,0.075,29.3
2023-10-23T08:09:13,2420,42.8014,5.9826,0.621,-0.462,2.918,155.0,151.0,152.0,11.8,1504.7,271.3,-0.8,0.9,2485.307,13.28,800.0,0.774,126.7
2023-10-23T08:12:13,2420,42.8014,5.9826,0.751,-0.244,2.295,155.0,151.0,152.0,11.8,1504.7,271.4,-0.8,0.9,2485.637,13.28,783.0,0.79,108.0
2023-10-23T08:15:13,2420,42.8014,5.9826,0.676,0.034,2.818,155.0,152.0,152.0,11.8,1504.7,271.3,-0.8,0.9,2485.259,13.28,792.0,0.677,87.1
2023-10-23T08:18:13,2420,42.8014,5.9826,0.817,0.269,3.094,155.0,151.0,152.0,11.8,1504.7,271.4,-0.8,0.9,2485.685,13.28,783.0,0.86,71.8
2023-10-23T08:21:13,2420,42.8014,5.9826,0.952,0.043,3.404,155.0,151.0,152.0,11.7,1504.7,271.4,-0.9,0.8,2485.368,13.28,788.0,0.953,87.4
2023-10-23T08:24:13,2420,42.8014,5.9826,1.038,-0.083,3.133,155.0,151.0,152.0,11.8,1504.7,271.3,-0.8,0.9,2485.193,13.28,779.0,1.041,94.6
2023-10-23T08:27:13,2420,42.8014,5.9826,0.642,0.023,2.838,155.0,151.0,152.0,11.8,1504.7,271.3,-0.9,0.9,2485.203,13.28,792.0,0.642,88.0
2023-10-23T08:30:13,2420,42.8014,5.9826,0.631,0.274,3.289,155.0,151.0,152.0,11.8,1504.7,271.3,-0.8,0.9,2484.97,13.29,783.0,0.688,66.5
2023-10-23T08:33:13,2420,42.8014,5.9826,0.728,0.279,3.193,155.0,151.0,152.0,11.8,1504.7,271.3,-0.9,0.9,2485.498,13.29,776.0,0.78,69.0
2023-10-23T08:36:13,2420,42.8014,5.9826,0.79,-0.047,3.452,155.0,151.0,152.0,11.8,1504.7,271.4,-0.8,0.9,2485.562,13.29,791.0,0.791,93.4
2023-10-23T08:39:13,2420,42.8014,5.9826,0.827,0.032,3.544,155.0,151.0,152.0,11.8,1504.7,271.3,-0.9,0.9,2485.412,13.3,806.0,0.828,87.8
2023-10-23T08:42:13,2420,42.8014,5.9826,0.654,0.059,3.704,155.0,151.0,152.0,11.8,1504.7,271.4,-0.8,0.9,2485.34,13.3,796.0,0.657,84.8
2023-10-23T08:45:13,2420,42.8014,5.9826,1.154,0.036,3.134,155.0,151.0,152.0,11.8,1504.7,271.5,-0.8,0.8,2485.476,13.29,772.0,1.154,88.2
2023-10-23T08:48:13,2420,42.8014,5.9826,0.664,0.031,3.677,155.0,151.0,152.0,11.8,1504.7,271.3,-0.9,0.9,2485.291,13.29,787.0,0.665,87.3
2023-10-23T08:51:13,2420,42.8014,5.9826,0.963,0.023,3.365,155.0,151.0,152.0,11.8,1504.7,271.4,-0.8,0.9,2485.392,13.29,789.0,0.963,88.6
2023-10-23T08:54:13,2420,42.8014,5.9826,0.68,0.047,3.673,155.0,151.0,152.0,11.8,1504.7,271.3,-0.8,0.9,2485.209,13.3,785.0,0.682,86.1
2023-10-23T08:57:13,2420,42.8014,5.9826,0.412,0.041,3.04,155.0,151.0,152.0,11.8,1504.7,271.3,-0.8,0.9,2485.86,13.3,785.0,0.414,84.3
2023-10-23T09:03:13,2420,42.8014,5.9826,1.039,0.029,3.287,155.0,151.0,152.0,11.8,1504.7,271.4,-0.8,0.9,2485.522,13.3,791.0,1.039,88.4
2023-10-23T09:06:13,2420,42.8014,5.9826,0.732,0.28,3.181,155.0,151.0,152.0,11.8,1504.7,271.4,-0.8,0.9,2485.438,13.29,792.0,0.784,69.1